Home   Weather   Osaka   Past weeks

Flag for Japan Past Weather in Osaka, Japan — Yesterday and Last 2 Weeks

Now
37 °F

Passing clouds.


Feels Like: 33 °F
Forecast: 35 / 52 °F
Wind: 6 mph from Northwest

Location: Osaka International Airport

Current Time: Dec 11, 2016 at 5:27:34 am

Latest Report: Dec 11, 2016 at 5:00 am


Visibility: N/A

Pressure: 30.15 "Hg

Humidity: 81%

Dew Point: 32 °F

Location of OsakaLocation

Past Weather in Osaka — Graph

°F

Osaka Temperature Yesterday

Maximum temperature yesterday: 52 °F (at 12:00 pm)
Minimum temperature yesterday: 39 °F (at 6:00 am)
Average temperature yesterday: 46 °F

High & Low Weather Summary for the Past Weeks

 TemperatureHumidityPressure
High64 °F (Dec 5, 12:00 pm)100% (Nov 27, 6:00 am)30.48 "Hg (Nov 27, 6:00 am)
Low36 °F (Dec 7, 7:00 am)36% (Dec 2, 1:00 pm)29.86 "Hg (Nov 27, 4:00 pm)
Average52 °F65%30.13 "Hg
* Reported Nov 25 8:00 pm — Dec 10 8:00 pm, Osaka, Weather by CustomWeather, © 2016

Note: Actual official high and low records may vary slightly from our data, if they occured in-between our weather recording intervals... More about our weather records

Advertising

Osaka Weather History for the Previous 24 Hours

Scroll right to see more
 ConditionsComfort  
Time TempWeatherWind HumidityBarometerVisibility
8:00 pm
Sat, Dec 10
43 °FPassing clouds.6 mph61%30.15 "HgN/A
7:00 pm43 °FPassing clouds.2 mph61%30.15 "HgN/A
6:00 pm43 °FPassing clouds.8 mph61%30.15 "HgN/A
5:00 pm45 °FPassing clouds.5 mph57%30.15 "HgN/A
4:00 pm46 °FPassing clouds.12 mph53%30.12 "HgN/A
3:00 pm46 °FScattered clouds.18 mph50%30.12 "HgN/A
2:00 pm50 °FPassing clouds.10 mph47%30.09 "HgN/A
1:00 pm50 °FPassing clouds.14 mph47%30.09 "HgN/A
12:00 pm52 °FPassing clouds.15 mph47%30.12 "HgN/A
11:00 am48 °FPassing clouds.14 mph58%30.15 "HgN/A
10:00 am46 °FScattered clouds.14 mph62%30.15 "HgN/A
9:00 am46 °FScattered clouds.6 mph66%30.12 "HgN/A
8:00 am45 °FScattered clouds.3 mph71%30.12 "HgN/A
7:00 am43 °FPassing clouds.2 mph71%30.09 "HgN/A
6:00 am39 °FPassing clouds.2 mph81%30.07 "HgN/A
5:00 am43 °FPassing clouds.1 mph71%30.04 "HgN/A
Weather by CustomWeather, © 2016

See weather overviewHow to use our weather pages